period_start,C,m1,H,J0,J1,J2,J3,J4,J5,JA,JB,JC,JD,JJ,JK,JN,#
2017-02-14 00:03:38,0.62,4.72,1.00,18.17,21.78,25.35,14.83,51.44,1019.55,2047.99,2127.73,2044.36,2317.12,600.22,607.84,7.37,0000 0000 0000 0000 000000
2017-02-14 00:08:39,0.59,4.75,1.00,18.14,21.77,25.27,14.95,51.38,1019.56,2048.00,2121.44,2039.45,2311.42,600.07,607.69,7.42,0000 0000 0000 0000 000000
2017-02-14 00:13:40,0.59,4.78,1.00,18.14,21.75,25.29,14.90,51.20,1019.56,2048.01,2115.33,2034.75,2306.05,600.33,608.00,7.47,0000 0000 0000 0000 000000
2017-02-14 00:18:42,0.63,4.81,1.00,18.16,21.74,25.31,14.83,51.57,1019.54,2048.02,2108.94,2029.70,2300.27,599.94,607.58,7.52,0000 0000 0000 0000 000000
2017-02-14 00:23:43,0.64,4.84,1.00,18.15,21.72,25.32,14.90,51.71,1019.44,2048.04,2102.43,2024.46,2294.27,600.08,607.64,7.57,0000 0000 0000 0000 000000
2017-02-14 00:28:44,0.65,4.87,1.00,18.13,21.70,25.33,14.94,51.78,1019.30,2048.13,2096.00,2019.38,2288.40,600.37,607.91,7.62,0000 0000 0000 0000 000000
2017-02-14 00:33:46,0.61,4.90,1.00,18.12,21.69,25.30,14.79,51.58,1019.09,2048.13,2089.87,2014.49,2282.77,599.94,607.53,7.67,0000 0000 0000 0000 000000
2017-02-14 00:38:47,0.65,4.94,1.00,18.09,21.67,25.28,14.88,51.89,1019.06,2048.20,2083.38,2009.42,2276.94,600.17,607.74,7.72,0000 0000 0000 0000 000000
2017-02-14 00:43:48,0.69,4.97,1.00,18.05,21.67,25.27,14.93,51.75,1019.06,2048.51,2076.90,2004.32,2271.06,599.97,607.59,7.77,0000 0000 0000 0000 000000
2017-02-14 00:48:49,0.67,5.00,1.00,18.03,21.64,25.29,14.88,51.92,1019.06,2048.87,2070.61,1999.43,2265.32,599.97,607.66,7.82,0000 0000 0000 0000 000000
2017-02-14 00:53:50,0.62,5.04,1.00,18.01,21.63,25.26,14.75,51.95,1019.06,2048.84,2064.32,1994.50,2259.57,599.90,607.55,7.87,0000 0000 0000 0000 000000
2017-02-14 00:58:52,0.64,5.07,1.00,18.01,21.62,25.23,14.96,51.90,1018.90,2048.92,2057.96,1989.59,2253.86,600.06,607.72,7.92,0000 0000 0000 0000 000000
2017-02-14 01:03:53,0.65,5.10,1.00,17.98,21.60,25.24,14.89,51.98,1018.72,2048.98,2051.59,1984.69,2248.18,599.81,607.46,7.97,0000 0000 0000 0000 000000
2017-02-14 01:08:54,0.61,5.13,1.00,17.93,21.59,25.18,14.80,51.88,1018.88,2048.98,2045.63,1979.97,2242.48,599.85,607.58,8.02,0000 0000 0000 0000 000000
2017-02-14 01:13:56,0.63,5.16,1.00,17.91,21.57,25.19,14.97,51.88,1018.71,2048.99,2039.63,1975.15,2236.99,600.23,607.99,8.07,0000 0000 0000 0000 000000
2017-02-14 01:18:57,0.61,5.20,1.00,17.88,21.55,25.16,14.77,52.09,1018.61,2048.98,2033.49,1970.42,2231.49,600.07,607.90,8.13,0000 0000 0000 0000 000000
2017-02-14 01:23:58,0.59,5.23,1.00,17.84,21.53,25.21,14.82,51.74,1019.00,2048.99,2027.56,1965.97,2226.34,599.79,607.80,8.18,0000 0000 0000 0000 000000
2017-02-14 01:29:00,0.59,5.26,1.00,17.80,21.51,25.10,14.90,51.61,1019.02,2048.99,2021.82,1961.53,2221.15,600.07,608.23,8.23,0000 0000 0000 0000 000000
2017-02-14 01:34:01,0.59,5.29,1.00,17.77,21.49,25.07,14.85,51.73,1019.06,2048.99,2016.03,1957.09,2216.03,599.96,608.25,8.28,0000 0000 0000 0000 000000
2017-02-14 01:39:02,0.56,5.32,1.00,17.78,21.47,25.01,14.85,51.47,1019.05,2048.99,2010.52,1952.87,2211.14,600.18,608.32,8.33,0000 0000 0000 0000 000000
2017-02-14 01:44:04,0.57,5.34,1.00,17.79,21.45,25.07,14.85,51.73,1018.85,2049.00,2004.95,1948.68,2206.25,600.21,608.25,8.38,0000 0000 0000 0000 000000
2017-02-14 01:49:05,0.61,5.37,1.00,17.79,21.43,25.01,14.88,51.73,1018.98,2049.02,1999.08,1944.19,2201.06,600.05,608.21,8.43,0000 0000 0000 0000 000000
2017-02-14 01:54:07,0.60,5.40,1.00,17.80,21.42,24.99,14.90,51.82,1019.06,2049.02,1993.29,1939.70,2195.91,600.02,608.12,8.48,0000 0000 0000 0000 000000
2017-02-14 01:59:08,0.64,5.44,1.00,17.81,21.39,24.95,14.88,52.08,1019.06,2049.07,1987.43,1935.21,2190.64,599.90,607.94,8.53,0000 0000 0000 0000 000000
2017-02-14 02:04:10,0.60,5.47,1.00,17.78,21.38,24.96,14.90,51.78,1019.07,2049.14,1981.83,1930.64,2185.42,600.21,608.43,8.58,0000 0000 0000 0000 000000
2017-02-14 02:09:11,0.61,5.50,1.00,17.77,21.37,24.93,14.99,51.83,1019.16,2049.29,1976.28,1926.31,2180.37,599.98,608.18,8.63,0000 0000 0000 0000 000000
2017-02-14 02:14:12,0.62,5.53,1.00,17.79,21.34,24.93,14.92,51.96,1019.06,2049.38,1970.60,1921.88,2175.32,599.74,607.91,8.68,0000 0000 0000 0000 000000
2017-02-14 02:19:13,0.66,5.56,1.00,17.77,21.33,24.90,14.86,52.03,1019.04,2049.69,1964.69,1917.53,2170.22,600.00,608.20,8.73,0000 0000 0000 0000 000000
2017-02-14 02:24:15,0.59,5.59,1.00,17.79,21.32,24.90,14.87,51.97,1018.73,2049.89,1959.18,1913.39,2165.38,600.06,608.09,8.78,0000 0000 0000 0000 000000
2017-02-14 02:29:16,0.60,5.63,1.00,17.80,21.30,24.91,14.93,52.14,1018.69,2049.96,1953.66,1909.09,2160.42,600.16,608.09,8.83,0000 0000 0000 0000 000000
2017-02-14 02:34:18,0.64,5.66,1.00,17.78,21.29,24.89,14.92,52.23,1018.81,2049.97,1947.91,1904.49,2155.19,599.88,607.96,8.88,0000 0000 0000 0000 000000
2017-02-14 02:39:19,0.61,5.69,1.00,17.77,21.27,24.88,14.88,52.41,1018.57,2049.98,1942.30,1900.08,2150.13,600.05,607.97,8.93,0000 0000 0000 0000 000000
2017-02-14 02:44:20,0.65,5.72,1.00,17.80,21.27,24.90,14.92,52.69,1018.43,2049.99,1936.62,1895.46,2144.80,599.94,607.72,8.98,0000 0000 0000 0000 000000
2017-02-14 02:49:21,0.63,5.75,1.00,17.77,21.25,24.94,14.88,52.68,1018.52,2049.99,1931.14,1891.07,2139.70,599.73,607.67,9.03,0000 0000 0000 0000 000000
2017-02-14 02:54:22,0.60,5.78,1.00,17.75,21.24,24.86,14.81,52.38,1018.31,2049.99,1925.66,1886.68,2134.66,599.83,607.70,9.08,0000 0000 0000 0000 000000
2017-02-14 02:59:24,0.58,5.81,1.00,17.72,21.23,24.85,14.83,52.53,1018.11,2049.99,1920.47,1882.53,2129.90,599.72,607.57,9.13,0000 0000 0000 0000 000000
2017-02-14 03:04:25,0.57,5.84,1.00,17.72,21.22,24.86,14.91,52.69,1018.09,2049.99,1915.42,1878.48,2125.18,599.87,607.59,9.18,0000 0000 0000 0000 000000
2017-02-14 03:09:26,0.55,5.87,1.00,17.73,21.21,24.90,14.96,52.17,1018.15,2049.99,1910.38,1874.57,2120.66,599.79,607.79,9.23,0000 0000 0000 0000 000000
2017-02-14 03:14:27,0.55,5.90,1.00,17.73,21.19,24.87,14.97,52.52,1018.14,2050.00,1905.34,1870.73,2116.22,600.08,607.88,9.28,0000 0000 0000 0000 000000
2017-02-14 03:19:29,0.56,5.93,1.00,17.72,21.19,24.79,14.81,52.28,1018.24,2050.03,1900.36,1866.90,2111.82,599.69,607.57,9.33,0000 0000 0000 0000 000000
2017-02-14 03:24:30,0.55,5.95,1.00,17.72,21.17,24.80,14.92,52.34,1018.37,2050.02,1895.35,1863.04,2107.54,600.30,608.20,9.38,0000 0000 0000 0000 000000
2017-02-14 03:29:32,0.56,5.98,1.00,17.71,21.17,24.80,14.81,52.37,1018.29,2050.01,1890.36,1859.15,2103.08,599.63,607.71,9.43,0000 0000 0000 0000 000000
2017-02-14 03:34:33,0.56,6.01,1.00,17.70,21.15,24.82,14.83,52.27,1018.39,2050.03,1885.39,1855.48,2098.70,599.81,607.80,9.48,0000 0000 0000 0000 000000
2017-02-14 03:39:34,0.58,6.04,1.00,17.71,21.14,24.81,14.86,52.23,1018.56,2050.06,1880.34,1851.70,2094.18,599.95,607.94,9.53,0000 0000 0000 0000 000000
2017-02-14 03:44:36,0.57,6.07,1.00,17.71,21.13,24.77,14.93,52.27,1018.57,2050.05,1875.24,1847.66,2089.52,600.08,608.08,9.58,0000 0000 0000 0000 000000
2017-02-14 03:49:37,0.56,6.10,1.00,17.72,21.12,24.76,14.89,52.31,1018.57,2050.07,1870.31,1843.82,2085.05,599.88,607.91,9.63,0000 0000 0000 0000 000000
2017-02-14 03:54:39,0.59,6.13,1.00,17.74,21.12,24.82,14.84,52.43,1018.48,2050.21,1865.30,1840.01,2080.61,599.82,607.74,9.68,0000 0000 0000 0000 000000
2017-02-14 03:59:40,0.60,6.16,1.00,17.74,21.11,24.74,14.96,52.51,1018.40,2050.42,1860.41,1836.15,2076.19,600.24,608.19,9.73,0000 0000 0000 0000 000000
2017-02-14 04:04:41,0.54,6.19,1.00,17.73,21.10,24.77,14.94,52.52,1018.56,2050.39,1855.70,1832.41,2071.86,600.35,608.35,9.78,0000 0000 0000 0000 000000
2017-02-14 04:09:43,0.58,6.22,1.00,17.72,21.09,24.76,14.82,52.54,1018.54,2050.81,1851.17,1828.84,2067.75,599.84,607.84,9.83,0000 0000 0000 0000 000000
2017-02-14 04:14:44,0.56,6.24,1.00,17.72,21.09,24.76,14.94,52.63,1018.52,2050.77,1846.43,1825.17,2063.46,600.15,608.14,9.88,0000 0000 0000 0000 000000
2017-02-14 04:19:45,0.55,6.27,1.00,17.73,21.09,24.75,14.85,52.53,1018.26,2050.80,1841.70,1821.52,2059.26,599.61,607.53,9.93,0000 0000 0000 0000 000000
2017-02-14 04:24:46,0.56,6.30,1.00,17.70,21.08,24.71,14.89,52.83,1018.13,2050.80,1836.95,1817.89,2054.97,599.97,607.81,9.98,0000 0000 0000 0000 000000
2017-02-14 04:29:47,0.58,6.33,1.00,17.69,21.07,24.76,14.93,52.67,1018.16,2050.94,1832.17,1814.17,2050.58,600.07,607.84,10.03,0000 0000 0000 0000 000000
2017-02-14 04:34:49,0.54,6.36,1.00,17.70,21.07,24.77,14.86,52.62,1018.10,2050.91,1827.56,1810.52,2046.47,600.14,607.82,10.08,0000 0000 0000 0000 000000
2017-02-14 04:39:50,0.54,6.38,1.00,17.68,21.07,24.75,14.87,52.68,1018.18,2050.90,1822.95,1807.02,2042.42,600.21,608.18,10.13,0000 0000 0000 0000 000000
2017-02-14 04:44:52,0.54,6.41,1.00,17.68,21.07,24.77,14.93,52.64,1018.46,2050.87,1818.43,1803.54,2038.36,600.18,608.27,10.18,0000 0000 0000 0000 000000
2017-02-14 04:49:53,0.57,6.44,1.00,17.68,21.07,24.77,14.88,52.45,1018.50,2050.95,1813.77,1799.97,2034.21,599.98,608.05,10.24,0000 0000 0000 0000 000000
2017-02-14 04:54:54,0.54,6.47,1.00,17.70,21.07,24.76,14.80,52.36,1018.50,2050.91,1809.21,1796.43,2030.13,600.11,608.14,10.29,0000 0000 0000 0000 000000
2017-02-14 04:59:56,0.56,6.50,1.00,17.69,21.06,24.78,14.87,52.48,1018.30,2050.89,1804.57,1792.96,2025.97,599.95,607.88,10.34,0000 0000 0000 0000 000000
2017-02-14 05:04:57,0.55,6.52,1.00,17.68,21.05,24.78,14.83,52.69,1018.20,2050.91,1800.04,1789.53,2021.90,599.76,607.70,10.39,0000 0000 0000 0000 000000
2017-02-14 05:09:58,0.54,6.55,1.00,17.67,21.04,24.74,14.82,52.58,1018.13,2050.97,1795.54,1786.07,2017.86,599.73,607.53,10.44,0000 0000 0000 0000 000000
2017-02-14 05:14:59,0.54,6.58,1.00,17.68,21.04,24.77,14.88,52.77,1018.35,2050.98,1791.20,1782.69,2013.86,599.97,607.93,10.49,0000 0000 0000 0000 000000
2017-02-14 05:20:01,0.54,6.61,1.00,17.67,21.04,24.74,14.87,52.62,1018.47,2050.97,1786.77,1779.25,2009.83,600.14,608.23,10.54,0000 0000 0000 0000 000000
2017-02-14 05:25:02,0.53,6.63,1.00,17.66,21.04,24.73,14.93,52.67,1018.32,2050.98,1782.44,1775.91,2005.91,599.97,607.94,10.59,0000 0000 0000 0000 000000
2017-02-14 05:30:03,0.56,6.66,1.00,17.65,21.04,24.71,14.91,52.66,1018.21,2050.98,1777.88,1772.35,2001.80,599.86,607.80,10.64,0000 0000 0000 0000 000000
2017-02-14 05:35:05,0.56,6.69,1.00,17.63,21.03,24.70,14.91,52.61,1018.10,2050.96,1773.30,1768.79,1997.71,600.16,608.23,10.69,0000 0000 0000 0000 000000
2017-02-14 05:40:06,0.55,6.72,1.00,17.62,21.02,24.71,14.89,53.00,1018.08,2050.94,1768.83,1765.32,1993.75,600.03,607.96,10.74,0000 0000 0000 0000 000000
2017-02-14 05:45:07,0.54,6.75,1.00,17.62,21.02,24.69,14.91,52.99,1018.07,2050.94,1764.41,1761.93,1989.80,599.80,607.74,10.79,0000 0000 0000 0000 000000
2017-02-14 05:50:08,0.61,6.77,1.00,17.61,21.02,24.69,14.88,53.21,1017.77,2050.97,1759.71,1758.41,1985.70,600.03,607.85,10.84,0000 0000 0000 0000 000000
2017-02-14 05:55:10,0.54,6.80,1.00,17.57,21.01,24.65,14.94,53.05,1017.62,2050.97,1755.14,1754.95,1981.85,600.16,607.93,10.89,0000 0000 0000 0000 000000
2017-02-14 06:00:11,0.54,6.83,1.00,17.55,21.00,24.68,14.89,53.23,1017.60,2050.96,1750.79,1751.71,1978.04,599.90,607.66,10.94,0000 0000 0000 0000 000000
2017-02-14 06:05:12,0.54,6.86,1.00,17.54,20.99,24.72,14.92,53.17,1017.61,2050.99,1746.40,1748.43,1974.09,600.00,607.93,10.99,0000 0000 0000 0000 000000
2017-02-14 06:10:13,0.57,6.89,1.00,17.53,20.99,24.69,15.00,53.05,1017.85,2050.99,1741.91,1745.04,1970.10,600.02,608.01,11.04,0000 0000 0000 0000 000000
2017-02-14 06:15:15,0.57,6.92,1.00,17.52,20.98,24.64,14.87,52.89,1017.95,2050.99,1737.50,1741.54,1966.06,599.65,607.71,11.09,0000 0000 0000 0000 000000
2017-02-14 06:20:16,0.55,6.95,1.00,17.50,20.97,24.62,14.92,53.19,1017.82,2050.99,1733.20,1738.08,1962.05,599.97,607.90,11.14,0000 0000 0000 0000 000000
2017-02-14 06:25:17,0.57,6.97,1.00,17.50,20.97,24.59,14.82,53.14,1017.62,2050.98,1728.79,1734.67,1958.06,599.97,607.81,11.19,0000 0000 0000 0000 000000
2017-02-14 06:30:18,0.56,7.00,1.00,17.46,20.95,24.62,14.92,53.15,1017.60,2050.99,1724.54,1731.20,1954.05,600.10,608.12,11.24,0000 0000 0000 0000 000000
2017-02-14 06:35:19,0.58,7.03,1.00,17.45,20.94,24.60,14.89,53.15,1017.66,2050.99,1720.05,1727.79,1949.93,600.35,608.35,11.29,0000 0000 0000 0000 000000
2017-02-14 06:40:21,0.54,7.06,1.00,17.45,20.93,24.58,14.90,53.15,1017.95,2050.99,1715.71,1724.45,1945.95,600.02,608.12,11.34,0000 0000 0000 0000 000000
2017-02-14 06:45:22,0.57,7.09,1.00,17.43,20.92,24.58,14.89,53.02,1017.95,2051.00,1711.47,1721.12,1942.15,599.95,608.21,11.39,0000 0000 0000 0000 000000
2017-02-14 06:50:24,0.53,7.12,1.00,17.42,20.91,24.51,14.85,53.02,1017.96,2051.00,1707.33,1717.84,1938.37,599.76,608.05,11.44,0000 0000 0000 0000 000000
2017-02-14 06:55:25,0.53,7.14,1.00,17.41,20.89,24.55,14.88,53.23,1017.94,2051.00,1703.23,1714.74,1934.72,599.91,608.15,11.49,0000 0000 0000 0000 000000
2017-02-14 07:00:26,0.52,7.17,1.00,17.38,20.89,24.52,14.81,53.27,1017.84,2051.01,1699.16,1711.65,1931.12,599.87,608.24,11.54,0000 0000 0000 0000 000000
2017-02-14 07:05:28,0.55,7.20,1.00,17.36,20.87,24.50,14.86,53.36,1018.04,2051.01,1695.08,1708.52,1927.49,599.81,608.37,11.59,0000 0000 0000 0000 000000
2017-02-14 07:10:29,0.52,7.22,1.00,17.33,20.86,24.50,14.96,53.51,1018.09,2051.02,1690.98,1705.45,1923.90,600.10,608.55,11.64,0000 0000 0000 0000 000000
2017-02-14 07:15:30,0.52,7.25,1.00,17.32,20.84,24.49,14.88,53.43,1018.11,2051.02,1687.04,1702.48,1920.44,599.63,608.23,11.69,0000 0000 0000 0000 000000
2017-02-14 07:20:32,0.52,7.27,1.00,17.29,20.84,24.44,14.91,53.48,1018.08,2051.02,1683.10,1699.50,1917.03,600.06,608.64,11.74,0000 0000 0000 0000 000000
2017-02-14 07:25:33,0.53,7.30,1.00,17.27,20.82,24.47,14.94,53.38,1018.08,2051.07,1679.19,1696.47,1913.55,599.85,608.54,11.79,0000 0000 0000 0000 000000
2017-02-14 07:30:34,0.53,7.33,1.00,17.26,20.82,24.43,14.97,53.43,1017.96,2051.06,1675.21,1693.34,1909.98,599.99,608.60,11.84,0000 0000 0000 0000 000000
2017-02-14 07:35:36,0.52,7.36,1.00,17.22,20.80,24.41,14.95,53.38,1017.77,2051.09,1671.29,1690.35,1906.49,600.04,608.57,11.89,0000 0000 0000 0000 000000
2017-02-14 07:40:37,0.53,7.38,1.00,17.19,20.79,24.39,14.98,53.55,1017.60,2051.18,1667.47,1687.40,1903.05,599.77,608.40,11.94,0000 0000 0000 0000 000000
2017-02-14 07:45:38,0.53,7.41,1.00,17.16,20.77,24.43,14.99,53.63,1017.85,2051.34,1663.73,1684.51,1899.70,600.01,608.85,11.99,0000 0000 0000 0000 000000
2017-02-14 07:50:40,0.54,7.43,1.00,17.13,20.76,24.36,15.01,53.79,1017.87,2051.58,1659.94,1681.64,1896.32,600.16,609.01,12.04,0000 0000 0000 0000 000000
2017-02-14 07:55:41,0.54,7.46,1.00,17.07,20.74,24.36,15.00,53.32,1017.92,2051.80,1656.13,1678.78,1892.95,600.24,609.28,12.09,0000 0000 0000 0000 000000
2017-02-14 08:00:42,0.54,7.49,1.00,17.06,20.73,24.33,14.91,53.64,1017.60,2051.92,1652.17,1675.79,1889.49,599.95,608.74,12.14,0000 0000 0000 0000 000000
2017-02-14 08:05:44,0.54,7.52,1.00,17.04,20.71,24.29,14.90,53.52,1017.61,2051.96,1648.24,1672.77,1886.00,599.68,608.56,12.19,0000 0000 0000 0000 000000
2017-02-14 08:10:45,0.54,7.54,1.00,17.02,20.69,24.32,14.93,53.48,1017.62,2051.98,1644.27,1669.75,1882.50,600.02,608.99,12.24,0000 0000 0000 0000 000000
2017-02-14 08:15:46,0.57,7.58,1.00,17.02,20.67,24.24,14.99,53.58,1017.60,2051.98,1640.18,1666.65,1878.84,599.96,608.81,12.29,0000 0000 0000 0000 000000
2017-02-14 08:20:48,0.54,7.60,1.00,17.01,20.65,24.24,14.91,53.52,1017.73,2051.99,1636.13,1663.61,1875.25,599.94,608.89,12.34,0000 0000 0000 0000 000000
2017-02-14 08:25:49,0.52,7.63,1.00,17.02,20.63,24.26,14.91,53.44,1017.75,2051.99,1632.26,1660.74,1871.85,600.21,609.29,12.40,0000 0000 0000 0000 000000
2017-02-14 08:30:51,0.51,7.65,1.00,17.01,20.61,24.21,14.94,53.45,1018.07,2051.99,1628.46,1657.83,1868.43,600.05,609.33,12.45,0000 0000 0000 0000 000000
2017-02-14 08:35:52,0.50,7.68,1.00,17.01,20.59,24.14,14.93,53.29,1018.28,2051.99,1624.87,1655.12,1865.24,600.02,609.44,12.50,0000 0000 0000 0000 000000
2017-02-14 08:40:53,0.50,7.71,1.00,17.02,20.57,24.18,14.96,53.33,1018.54,2052.00,1621.24,1652.36,1862.02,599.98,609.45,12.55,0000 0000 0000 0000 000000
2017-02-14 08:45:55,0.51,7.73,1.00,17.01,20.56,24.17,14.85,53.22,1018.53,2052.01,1617.65,1649.64,1858.83,599.97,609.41,12.60,0000 0000 0000 0000 000000
2017-02-14 08:50:56,0.50,7.76,1.00,17.02,20.54,24.14,15.05,53.23,1018.56,2052.02,1614.00,1646.89,1855.66,600.51,610.03,12.65,0000 0000 0000 0000 000000
2017-02-14 08:55:58,0.53,7.78,1.00,17.02,20.52,24.13,14.91,53.52,1018.49,2052.02,1610.25,1644.05,1852.50,600.03,609.44,12.70,0000 0000 0000 0000 000000
2017-02-14 09:00:59,0.59,7.81,1.00,17.05,20.52,24.12,14.95,53.83,1018.53,2052.06,1606.26,1640.90,1848.81,600.05,609.50,12.75,0000 0000 0000 0000 000000
2017-02-14 09:06:01,0.59,7.84,1.00,17.04,20.50,24.14,14.96,53.63,1018.59,2052.10,1602.14,1637.70,1845.12,600.21,609.70,12.80,0000 0000 0000 0000 000000
2017-02-14 09:11:02,0.59,7.87,1.00,17.04,20.49,24.18,14.97,53.57,1018.73,2052.07,1598.13,1634.45,1841.34,600.33,609.69,12.85,0000 0000 0000 0000 000000
2017-02-14 09:16:03,0.58,7.90,1.00,17.03,20.48,24.19,14.92,53.55,1018.80,2052.11,1594.14,1631.31,1837.68,599.62,609.21,12.90,0000 0000 0000 0000 000000
2017-02-14 09:21:05,0.56,7.93,1.00,17.02,20.47,24.13,15.04,53.48,1018.88,2052.18,1590.37,1628.34,1834.19,600.34,610.02,12.95,0000 0000 0000 0000 000000
2017-02-14 09:26:06,0.60,7.96,1.00,16.99,20.46,24.13,14.94,53.63,1019.05,2052.42,1586.39,1625.25,1830.63,599.96,609.86,13.00,0000 0000 0000 0000 000000
2017-02-14 09:31:07,0.61,7.99,1.00,16.96,20.44,24.16,14.96,53.44,1019.05,2052.59,1582.37,1622.04,1826.99,599.85,609.72,13.05,0000 0000 0000 0000 000000
2017-02-14 09:36:09,0.58,8.02,1.00,16.96,20.44,24.11,14.90,53.62,1019.02,2052.61,1578.32,1618.98,1823.42,599.83,609.64,13.10,0000 0000 0000 0000 000000
2017-02-14 09:41:10,0.58,8.05,1.00,16.98,20.43,24.11,14.99,53.74,1019.00,2052.69,1574.44,1615.89,1819.85,599.98,609.77,13.15,0000 0000 0000 0000 000000
2017-02-14 09:46:11,0.59,8.08,1.00,16.95,20.42,24.11,14.92,53.68,1018.94,2052.74,1570.58,1612.86,1816.35,600.02,609.81,13.20,0000 0000 0000 0000 000000
2017-02-14 09:51:12,0.59,8.11,1.00,16.96,20.42,24.11,15.00,53.70,1018.77,2052.92,1566.65,1609.77,1812.84,600.16,610.01,13.25,0000 0000 0000 0000 000000
2017-02-14 09:56:14,0.56,8.14,1.00,16.94,20.40,24.07,15.02,53.72,1018.63,2052.96,1562.82,1606.86,1809.45,600.32,610.01,13.30,0000 0000 0000 0000 000000
2017-02-14 10:01:16,0.57,8.17,1.00,16.95,20.39,24.08,15.07,53.51,1018.61,2052.98,1559.03,1603.86,1805.96,600.16,609.75,13.35,0000 0000 0000 0000 000000
2017-02-14 10:06:17,0.60,8.20,1.00,16.94,20.39,24.07,15.00,53.85,1018.75,2052.95,1555.03,1600.79,1802.36,600.07,609.76,13.40,0000 0000 0000 0000 000000
2017-02-14 10:11:18,0.62,8.23,1.00,16.94,20.37,24.07,14.99,53.80,1018.78,2052.95,1550.80,1597.67,1798.61,600.01,609.85,13.45,0000 0000 0000 0000 000000
2017-02-14 10:16:20,0.58,8.26,1.00,16.93,20.37,24.05,14.95,53.80,1018.90,2052.95,1546.86,1594.64,1795.05,600.36,610.23,13.50,0000 0000 0000 0000 000000
2017-02-14 10:21:21,0.61,8.29,1.00,16.92,20.36,24.04,14.97,53.85,1018.94,2052.97,1542.90,1591.47,1791.43,600.07,609.99,13.55,0000 0000 0000 0000 000000
2017-02-14 10:26:22,0.57,8.32,1.00,16.89,20.34,24.02,14.95,53.73,1019.02,2052.98,1539.11,1588.44,1788.04,599.78,609.95,13.60,0000 0000 0000 0000 000000
2017-02-14 10:31:24,0.56,8.35,1.00,16.88,20.34,24.01,14.96,53.81,1019.08,2052.98,1535.50,1585.51,1784.61,599.83,609.84,13.65,0000 0000 0000 0000 000000
2017-02-14 10:36:25,0.55,8.37,1.00,16.87,20.33,24.05,15.10,53.74,1019.16,2052.98,1531.82,1582.62,1781.24,600.41,610.46,13.70,0000 0000 0000 0000 000000
2017-02-14 10:41:27,0.56,8.40,1.00,16.88,20.32,23.99,14.96,53.76,1019.14,2052.98,1528.06,1579.80,1778.01,599.86,610.08,13.75,0000 0000 0000 0000 000000
2017-02-14 10:46:28,0.54,8.43,1.00,16.88,20.32,23.99,14.93,53.62,1019.23,2052.98,1524.49,1577.10,1774.84,599.82,610.06,13.80,0000 0000 0000 0000 000000
2017-02-14 10:51:29,0.53,8.46,1.00,16.87,20.31,23.98,14.95,53.73,1019.43,2052.99,1520.93,1574.40,1771.69,599.86,610.19,13.85,0000 0000 0000 0000 000000
2017-02-14 10:56:30,0.55,8.48,1.00,16.87,20.29,23.99,14.98,53.52,1019.53,2052.99,1517.38,1571.67,1768.52,600.01,610.30,13.90,0000 0000 0000 0000 000000
2017-02-14 11:01:31,0.53,8.51,1.00,16.86,20.29,24.01,14.95,53.34,1019.55,2052.99,1513.86,1568.96,1765.39,599.83,610.20,13.95,0000 0000 0000 0000 000000
2017-02-14 11:06:32,0.55,8.54,1.00,16.84,20.29,23.96,14.89,53.27,1019.55,2052.99,1510.29,1566.27,1762.24,599.79,610.17,14.00,0000 0000 0000 0000 000000
2017-02-14 11:11:34,0.53,8.57,1.00,16.84,20.28,23.94,15.00,53.54,1019.55,2052.99,1506.80,1563.54,1759.11,600.13,610.65,14.05,0000 0000 0000 0000 000000
2017-02-14 11:16:35,0.56,8.59,1.00,16.83,20.27,23.97,14.97,53.62,1019.55,2052.99,1503.25,1560.82,1755.93,600.02,610.32,14.10,0000 0000 0000 0000 000000
2017-02-14 11:21:37,0.53,8.62,1.00,16.82,20.27,24.00,15.01,53.58,1019.55,2052.99,1499.70,1558.20,1752.84,599.81,610.34,14.15,0000 0000 0000 0000 000000
2017-02-14 11:26:38,0.53,8.65,1.00,16.83,20.27,23.95,15.05,53.39,1019.55,2052.99,1496.24,1555.56,1749.78,600.36,610.85,14.20,0000 0000 0000 0000 000000
2017-02-14 11:31:39,0.54,8.68,1.00,16.83,20.27,23.99,14.99,53.33,1019.55,2052.99,1492.80,1552.94,1746.70,600.16,610.60,14.25,0000 0000 0000 0000 000000
2017-02-14 11:36:40,0.53,8.70,1.00,16.85,20.26,23.99,14.99,53.70,1019.55,2052.99,1489.35,1550.33,1743.67,600.38,610.74,14.30,0000 0000 0000 0000 000000
2017-02-14 11:41:42,0.55,8.73,1.00,16.86,20.25,23.95,14.99,53.72,1019.55,2052.99,1485.94,1547.66,1740.60,600.09,610.49,14.35,0000 0000 0000 0000 000000
2017-02-14 11:46:43,0.53,8.76,1.00,16.84,20.24,24.00,14.94,53.68,1019.65,2052.99,1482.49,1545.02,1737.52,600.03,610.54,14.40,0000 0000 0000 0000 000000
2017-02-14 11:51:44,0.55,8.78,1.00,16.84,20.24,23.98,15.01,53.58,1019.72,2052.99,1479.01,1542.32,1734.43,600.19,610.75,14.45,0000 0000 0000 0000 000000
2017-02-14 11:56:46,0.55,8.81,1.00,16.82,20.24,23.94,14.98,53.73,1019.73,2052.99,1475.49,1539.70,1731.35,599.78,610.38,14.51,0000 0000 0000 0000 000000
2017-02-14 12:01:47,0.53,8.84,1.00,16.81,20.24,23.96,14.97,53.73,1019.58,2052.99,1472.11,1537.12,1728.38,600.09,610.56,14.56,0000 0000 0000 0000 000000
2017-02-14 12:06:48,0.53,8.87,1.00,16.82,20.23,24.00,14.95,53.98,1019.55,2052.99,1468.83,1534.61,1725.44,600.32,610.83,14.61,0000 0000 0000 0000 000000
2017-02-14 12:11:49,0.54,8.90,1.00,16.79,20.22,23.96,15.01,53.91,1019.58,2052.99,1465.42,1532.05,1722.37,600.15,610.72,14.66,0000 0000 0000 0000 000000
2017-02-14 12:16:51,0.53,8.92,1.00,16.79,20.22,23.94,14.96,53.93,1019.66,2052.99,1462.11,1529.44,1719.40,599.99,610.65,14.71,0000 0000 0000 0000 000000
2017-02-14 12:21:52,0.53,8.95,1.00,16.76,20.22,23.97,14.94,53.85,1019.87,2052.99,1458.78,1526.93,1716.43,600.09,610.92,14.76,0000 0000 0000 0000 000000
2017-02-14 12:26:53,0.53,8.97,1.00,16.75,20.22,23.94,15.00,54.00,1019.84,2052.99,1455.46,1524.33,1713.46,600.08,610.89,14.81,0000 0000 0000 0000 000000
2017-02-14 12:31:55,0.53,9.00,1.00,16.76,20.21,23.96,15.05,53.99,1019.97,2052.99,1452.17,1521.80,1710.53,600.08,610.95,14.86,0000 0000 0000 0000 000000
2017-02-14 12:36:56,0.55,9.03,1.00,16.77,20.19,23.95,15.03,53.98,1020.03,2052.99,1448.86,1519.26,1707.54,599.94,610.86,14.91,0000 0000 0000 0000 000000
2017-02-14 12:41:58,0.54,9.06,1.00,16.76,20.19,23.90,15.00,53.98,1020.06,2052.99,1445.55,1516.66,1704.58,600.12,610.91,14.96,0000 0000 0000 0000 000000
2017-02-14 12:46:59,0.54,9.09,1.00,16.74,20.19,23.88,14.99,53.96,1020.10,2052.99,1442.27,1514.10,1701.64,599.73,610.60,15.01,0000 0000 0000 0000 000000
2017-02-14 12:52:00,0.53,9.11,1.00,16.75,20.19,23.93,15.06,53.67,1020.48,2052.99,1439.02,1511.61,1698.71,599.99,611.28,15.06,0000 0000 0000 0000 000000
2017-02-14 12:57:01,0.54,9.14,1.00,16.74,20.19,23.91,14.90,53.66,1020.51,2053.00,1435.77,1509.12,1695.84,599.55,610.82,15.11,0000 0000 0000 0000 000000